Terug naar catalogus

STARLINK-35791

ActiefCommunicatieVLEO
NORAD 66896·PAYLOAD·🇺🇸 United States

Gelanceerd Dec 4, 2025 vanaf Vandenberg Space Force Base

Loading…

Volgende Passages (komende 24 uur)

TLE

VersSource: CelesTrak SupGP

Epoch: Sep 14, 2026, 22:43 UTC

1 66896C 25283U   26257.94701389  .00014182  00000+0  41888-3 0  2572
2 66896  53.1569 223.3118 0001576  97.3949 321.7772 15.34392244    13

Volg STARLINK-35791 in realtime met AllMySat

Download on the App Store